[[{"header":{"parameterUnit":"m.s-1","parameterCategory":1,"la1":30.2991,"la2":30.254,"lo1":-89.0895,"lo2":-89.0444,"dy":0.0017,"dx":0.0017,"nx":28,"ny":28,"refTime":"2025-11-13T03:00:00:Z","depth":0,"parameterNumber":2,"parameterNumberName":"U-component_of_WINDS"},"data":[0,0,0,0,0,0,0,0,0,0,0,0,0,0,0,0,0,0,0,0,0,0,0,0,0,0,0,0,0,0,0,0,0,0,0,0,0,0,0,0,0,0,0,0,0,0,0,0,0,0,0,0,0,0,0,0,0,0,0.5298,0.5298,0,0.5295,0.5295,0.5294,0.529,0.529,0.5289,0.5289,0.5287,0.5287,0.5287,0,0,0,0,0,0,0,0,0,0,0,0,0,0.5301,0.5301,0.5298,0.5298,0.5298,0.5295,0.5295,0.5294,0.529,0.529,0.5289,0.5289,0.5287,0.5287,0.5287,0,0,0,0,0,0,0,0,0,0,0,0,0,0.5299,0.5301,0.5298,0.5295,0.5294,0.5295,0.5295,0.5294,0.529,0.529,0.5289,0.5289,0.5287,0.5287,0.5287,0.529,0,0,0.5287,0.5287,0,0,0,0,0,0,0,0,0.5299,0.5299,0.5295,0.5295,0.5295,0.5292,0.5295,0.5293,0.529,0.5292,0.5289,0.5289,0.5289,0.5289,0.5288,0.529,0.5289,0.5287,0.5287,0.5287,0.5287,0,0,0,0,0,0,0,0.5299,0.5299,0.5296,0.5295,0.5295,0.5294,0.5294,0.5294,0.5291,0.5291,0.5291,0.5291,0.5289,0.5288,0.5288,0.5289,0.5287,0.5287,0.5287,0.5287,0.5295,0.5295,0,0,0,0,0,0,0.53,0.5299,0.5297,0.5296,0.5297,0.5294,0.5294,0.5293,0.5291,0.529,0.5291,0.529,0.5288,0.5288,0.5288,0.5292,0.5287,0.5287,0.5287,0.5294,0.5295,0.5295,0,0,0,0,0,0,0.53,0.53,0.5297,0.5298,0.5297,0.5294,0.5294,0.5293,0.5293,0.5291,0.529,0.5291,0.5288,0.5288,0.529,0.5292,0.5287,0.5287,0.5294,0.5295,0.5295,0.53,0,0,0,0,0,0,0.53,0.53,0.53,0.5298,0.5297,0.5298,0.5294,0.5293,0.5293,0.5292,0.5291,0.529,0.5288,0.529,0.529,0.5292,0.5287,0.5294,0.5294,0.5295,0.53,0.53,0.5301,0,0,0,0,0,0.53,0.5301,0.53,0.53,0.5298,0.5298,0.5297,0.5295,0.5293,0.5294,0.5293,0.529,0.5292,0.529,0.529,0.5292,0.5294,0.5294,0.5295,0.5299,0.53,0.5301,0,0,0,0,0,0,0.5304,0.5301,0.5299,0.53,0.5299,0.5297,0.5298,0.5296,0.5296,0.5295,0.5292,0.5292,0.5294,0.5293,0.5291,0.5296,0.5293,0.5293,0.5296,0.5297,0.5298,0.5298,0.5287,0,0,0,0,0,0.5305,0.5304,0.5302,0.5303,0.5303,0.53,0.53,0.5299,0.5298,0.5297,0.5296,0.5296,0.5296,0.5297,0.5297,0.53,0.53,0.5301,0.5302,0.5303,0.5303,0.5306,0.5307,0.5296,0.5296,0.5296,0,0,0.5306,0.5305,0.5305,0.5304,0.5303,0.5303,0.53,0.53,0.5301,0.5297,0.5299,0.5298,0.5298,0.53,0.5301,0.53,0.5306,0.5303,0.5304,0.5304,0.5307,0.5308,0.5308,0.5297,0.5297,0.5297,0,0,0.5309,0.5308,0.5309,0.5309,0.5308,0.5307,0.5307,0.5305,0.5305,0.5306,0.5304,0.5305,0.5306,0.5306,0.5306,0.5312,0.531,0.5313,0.5316,0.5319,0.532,0.5321,0.5323,0.5324,0.5313,0.5313,0.5313,0,0.5312,0.5312,0.531,0.5311,0.5311,0.5308,0.531,0.531,0.5309,0.5309,0.5308,0.531,0.5309,0.5312,0.5314,0.5314,0.5315,0.5312,0.532,0.5321,0.5321,0.5324,0.5325,0.5313,0.5313,0.5313,0.5313,0,0.5315,0.5316,0.5317,0.5316,0.5317,0.5318,0.5317,0.5318,0.5317,0.5316,0.5319,0.5318,0.5319,0.532,0.5318,0.5323,0.5322,0.532,0.5317,0.5323,0.5325,0.5326,0.5314,0.5314,0.5314,0.5313,0,0,0.5319,0.5319,0.5319,0.532,0.532,0.532,0.5322,0.5323,0.5325,0.5325,0.5327,0.5329,0.5327,0.5328,0.5327,0.5329,0.5335,0.5327,0.5327,0.5329,0.5341,0.5343,0.5344,0.5334,0.5334,0.5334,0.5342,0,0.5322,0.5325,0.5324,0.5327,0.5329,0.5327,0.5329,0.533,0.533,0.5331,0.5331,0.5333,0.5331,0.5331,0.5333,0.5334,0.5337,0.5333,0.5336,0.5337,0.5336,0.5345,0.5346,0.5353,0.5343,0.5343,0.5343,0,0.5326,0.5327,0.5331,0.5332,0.5332,0.5334,0.5336,0.5337,0.5338,0.5338,0.534,0.5339,0.5342,0.5339,0.5344,0.5341,0.5342,0.5343,0.5343,0.5343,0.534,0.5346,0.5355,0.5357,0.5344,0.5344,0.5344,0,0.5329,0.5332,0.5334,0.5335,0.5336,0.5338,0.5338,0.5339,0.5341,0.5343,0.5344,0.5346,0.5347,0.5349,0.5349,0.5347,0.5354,0.5351,0.5355,0.5355,0.5356,0.5356,0.5366,0.5357,0.5357,0.5357,0.5357,0,0.5333,0.5335,0.5336,0.5338,0.5341,0.534,0.5344,0.5344,0.5346,0.5348,0.5347,0.535,0.535,0.5352,0.5353,0.5357,0.5357,0.5358,0.5358,0.5358,0.5358,0.5359,0.5358,0.5357,0.5357,0.5357,0.5357,0,0.5337,0.5337,0.534,0.5342,0.5342,0.5345,0.5346,0.5348,0.5349,0.5352,0.5353,0.5354,0.5357,0.5358,0.5362,0.5362,0.5368,0.5367,0.5367,0.5367,0.5371,0.5371,0.5382,0.5384,0.5373,0.5373,0.5374,0,0.5339,0.5341,0.5343,0.5345,0.5346,0.5348,0.535,0.535,0.5352,0.5355,0.5357,0.5361,0.5363,0.5369,0.537,0.5374,0.5373,0.5377,0.5374,0.5374,0.5374,0.5374,0.5375,0.5378,0.5378,0.5378,0.5378,0,0.5343,0.5344,0.5346,0.5349,0.5351,0.5353,0.5356,0.5357,0.5358,0.5361,0.5364,0.5366,0.5371,0.5375,0.5379,0.538,0.538,0.5379,0.538,0.538,0.5381,0.5381,0.5369,0.5379,0.5379,0.5379,0.5379,0.5379,0.5347,0.5349,0.5351,0.5354,0.5356,0.5359,0.5361,0.5363,0.5366,0.537,0.537,0.5374,0.5377,0.5382,0.5384,0.5388,0.5387,0.5388,0.5389,0.5389,0.539,0.538,0.5389,0.5389,0.5389,0.5389,0.5389,0,0.5351,0.5353,0.5356,0.536,0.5362,0.5362,0.5365,0.5368,0.5372,0.5374,0.5378,0.5383,0.5387,0.5389,0.5394,0.5397,0.5397,0.5398,0.5397,0.5398,0.539,0.5389,0.5398,0.5398,0.5398,0.5398,0.5398,0.5398,0.5354,0.5358,0.5359,0.5365,0.5367,0.5371,0.5373,0.5376,0.5378,0.5384,0.5388,0.539,0.5393,0.5398,0.5402,0.5403,0.5405,0.5406,0.5407,0.5399,0.5398,0.5398,0.5396,0.5406,0.5406,0.5414,0.5414,0.5414]},{"header":{"parameterUnit":"m.s-1","parameterCategory":1,"la1":30.2991,"la2":30.254,"lo1":-89.0895,"lo2":-89.0444,"dy":0.0017,"dx":0.0017,"nx":28,"ny":28,"refTime":"2025-11-13T03:00:00:Z","depth":0,"parameterNumber":3,"parameterNumberName":"V-component_of_WINDS"},"data":[0,0,0,0,0,0,0,0,0,0,0,0,0,0,0,0,0,0,0,0,0,0,0,0,0,0,0,0,0,0,0,0,0,0,0,0,0,0,0,0,0,0,0,0,0,0,0,0,0,0,0,0,0,0,0,0,0,0,-1.2959,-1.2959,0,-1.2978,-1.2979,-1.2979,-1.3023,-1.3024,-1.3025,-1.3026,-1.3046,-1.3046,-1.3046,0,0,0,0,0,0,0,0,0,0,0,0,0,-1.2963,-1.2962,-1.2959,-1.2959,-1.2959,-1.2978,-1.2979,-1.2979,-1.3023,-1.3024,-1.3025,-1.3026,-1.3046,-1.3046,-1.3045,0,0,0,0,0,0,0,0,0,0,0,0,0,-1.2969,-1.2962,-1.2959,-1.2984,-1.2986,-1.2978,-1.2979,-1.2979,-1.3023,-1.3024,-1.3025,-1.3027,-1.3046,-1.3046,-1.3045,-1.3015,0,0,-1.3044,-1.3044,0,0,0,0,0,0,0,0,-1.2969,-1.2969,-1.298,-1.2982,-1.2985,-1.3,-1.2988,-1.2991,-1.3022,-1.3009,-1.3026,-1.3027,-1.303,-1.3031,-1.3031,-1.3016,-1.3017,-1.3044,-1.3044,-1.3044,-1.3043,0,0,0,0,0,0,0,-1.2968,-1.2969,-1.2967,-1.298,-1.2983,-1.2995,-1.2997,-1.2988,-1.3011,-1.301,-1.3013,-1.3015,-1.3031,-1.3032,-1.3032,-1.3017,-1.3044,-1.3044,-1.3043,-1.3043,-1.2983,-1.2982,0,0,0,0,0,0,-1.2964,-1.2968,-1.2966,-1.2967,-1.298,-1.2994,-1.2996,-1.2993,-1.3012,-1.3016,-1.3014,-1.3017,-1.3032,-1.3033,-1.3033,-1.3002,-1.3044,-1.3043,-1.3043,-1.2985,-1.2983,-1.2982,0,0,0,0,0,0,-1.2964,-1.2964,-1.2965,-1.2969,-1.297,-1.2992,-1.2989,-1.2993,-1.2994,-1.3014,-1.3019,-1.301,-1.3033,-1.3034,-1.302,-1.3003,-1.3043,-1.3042,-1.2986,-1.2984,-1.2982,-1.2938,0,0,0,0,0,0,-1.2964,-1.2963,-1.2951,-1.2968,-1.2969,-1.2951,-1.2987,-1.2993,-1.2993,-1.2997,-1.3012,-1.3016,-1.3034,-1.3021,-1.302,-1.3004,-1.3042,-1.2988,-1.2985,-1.2983,-1.2941,-1.2935,-1.293,0,0,0,0,0,-1.2964,-1.2937,-1.295,-1.295,-1.2955,-1.295,-1.2951,-1.2973,-1.2991,-1.298,-1.2994,-1.3015,-1.3005,-1.3019,-1.3018,-1.3002,-1.2989,-1.2986,-1.2983,-1.2944,-1.2936,-1.293,0,0,0,0,0,0,-1.2917,-1.294,-1.2955,-1.2932,-1.2939,-1.2958,-1.2944,-1.2963,-1.2965,-1.2969,-1.2996,-1.2999,-1.2983,-1.299,-1.3006,-1.2976,-1.3001,-1.2998,-1.2971,-1.2964,-1.2958,-1.2957,-1.3042,0,0,0,0,0,-1.2904,-1.2898,-1.2918,-1.2897,-1.29,-1.2921,-1.292,-1.2936,-1.2944,-1.2948,-1.296,-1.2968,-1.2967,-1.2966,-1.2965,-1.2942,-1.2948,-1.2931,-1.2925,-1.292,-1.2917,-1.291,-1.2903,-1.2972,-1.2972,-1.2972,0,0,-1.2877,-1.2889,-1.2883,-1.2888,-1.2895,-1.289,-1.2923,-1.2915,-1.2912,-1.2946,-1.2936,-1.2945,-1.2956,-1.2939,-1.2932,-1.2945,-1.29,-1.2916,-1.2912,-1.2912,-1.2906,-1.2899,-1.2894,-1.297,-1.297,-1.2971,0,0,-1.2827,-1.2833,-1.2818,-1.2825,-1.2836,-1.2851,-1.2847,-1.2864,-1.2872,-1.2862,-1.2888,-1.2885,-1.2882,-1.289,-1.2893,-1.2848,-1.2869,-1.2847,-1.2817,-1.2809,-1.2804,-1.2799,-1.2786,-1.2781,-1.2844,-1.2844,-1.2844,0,-1.2792,-1.2784,-1.2808,-1.2799,-1.2802,-1.2833,-1.2819,-1.2825,-1.2835,-1.2837,-1.2851,-1.285,-1.2859,-1.2846,-1.2835,-1.2836,-1.2835,-1.2846,-1.2803,-1.2798,-1.2794,-1.2782,-1.2777,-1.2842,-1.2842,-1.2842,-1.2843,0,-1.2743,-1.2738,-1.2724,-1.2735,-1.2735,-1.2723,-1.2747,-1.2745,-1.2761,-1.2776,-1.2766,-1.2779,-1.2783,-1.2781,-1.2796,-1.2771,-1.2779,-1.2798,-1.2824,-1.2785,-1.2774,-1.277,-1.2838,-1.2839,-1.284,-1.284,0,0,-1.2662,-1.2688,-1.2683,-1.269,-1.2705,-1.2702,-1.2693,-1.2698,-1.2698,-1.2704,-1.2699,-1.2697,-1.2715,-1.2719,-1.2736,-1.2729,-1.2697,-1.2749,-1.2749,-1.2741,-1.2673,-1.2661,-1.2655,-1.271,-1.2709,-1.2709,-1.2674,0,-1.2617,-1.2604,-1.2626,-1.2607,-1.2605,-1.2636,-1.2628,-1.2638,-1.2652,-1.2652,-1.2667,-1.2666,-1.2689,-1.2692,-1.2686,-1.2702,-1.2684,-1.2704,-1.2708,-1.2708,-1.2706,-1.2649,-1.2635,-1.2602,-1.2669,-1.2668,-1.2668,0,-1.2562,-1.2568,-1.255,-1.257,-1.2569,-1.2562,-1.2571,-1.257,-1.2583,-1.2593,-1.2599,-1.262,-1.2614,-1.2639,-1.2633,-1.2647,-1.265,-1.2658,-1.2657,-1.266,-1.2687,-1.2653,-1.2591,-1.2587,-1.2661,-1.2662,-1.2662,0,-1.2509,-1.2512,-1.2502,-1.2507,-1.2529,-1.2524,-1.2533,-1.2547,-1.255,-1.2557,-1.256,-1.2566,-1.257,-1.2575,-1.2598,-1.2613,-1.2591,-1.2616,-1.2602,-1.2601,-1.2597,-1.2597,-1.2537,-1.2595,-1.2595,-1.2595,-1.2595,0,-1.2458,-1.2446,-1.248,-1.2474,-1.2463,-1.2489,-1.2477,-1.249,-1.2502,-1.2501,-1.2527,-1.2526,-1.2555,-1.2557,-1.2574,-1.2569,-1.257,-1.258,-1.2585,-1.2579,-1.2578,-1.2583,-1.2586,-1.2594,-1.2594,-1.2594,-1.2594,0,-1.2397,-1.2418,-1.2411,-1.2433,-1.2439,-1.243,-1.245,-1.2447,-1.2462,-1.246,-1.2461,-1.2486,-1.2491,-1.2514,-1.2522,-1.2535,-1.2524,-1.2533,-1.252,-1.2524,-1.2509,-1.2511,-1.2451,-1.2446,-1.2505,-1.2504,-1.2504,0,-1.2364,-1.2356,-1.2378,-1.238,-1.2388,-1.2389,-1.2393,-1.2419,-1.2422,-1.2437,-1.2433,-1.2439,-1.2446,-1.2451,-1.2471,-1.2479,-1.2489,-1.2468,-1.2491,-1.2486,-1.2493,-1.2494,-1.2495,-1.2464,-1.2463,-1.2462,-1.2462,0,-1.2304,-1.2316,-1.232,-1.2328,-1.2332,-1.234,-1.2349,-1.2349,-1.2378,-1.238,-1.2385,-1.239,-1.2401,-1.2408,-1.242,-1.2431,-1.2452,-1.2454,-1.2452,-1.2446,-1.244,-1.2446,-1.2509,-1.2456,-1.2456,-1.2457,-1.2457,-1.2457,-1.2258,-1.2254,-1.227,-1.2274,-1.2285,-1.2294,-1.2293,-1.2309,-1.2314,-1.2324,-1.234,-1.2343,-1.2359,-1.2377,-1.2387,-1.2391,-1.2403,-1.2399,-1.2398,-1.2397,-1.2395,-1.2438,-1.2393,-1.2393,-1.2394,-1.2394,-1.2394,0,-1.2202,-1.2214,-1.2218,-1.2232,-1.2236,-1.2255,-1.2268,-1.227,-1.2273,-1.2286,-1.2293,-1.23,-1.2308,-1.2329,-1.2339,-1.2339,-1.2349,-1.2341,-1.2342,-1.2345,-1.2382,-1.2385,-1.2333,-1.2333,-1.2333,-1.2333,-1.2333,-1.2333,-1.2173,-1.2168,-1.2182,-1.2184,-1.2196,-1.22,-1.2206,-1.2216,-1.2227,-1.2234,-1.2241,-1.2254,-1.2272,-1.2284,-1.2292,-1.2299,-1.2302,-1.2291,-1.2301,-1.2336,-1.2342,-1.2348,-1.235,-1.2291,-1.2291,-1.2264,-1.2263,-1.2263]}]]